Overview Statistics Trail Chart Weather Telemetry Raw packets
 

This is the latest recevied weather packets stored in our database for station/object KO4DYK. If no packets are shown the sender has not sent any weather packets the latest 10 day(s).

<< 87 88 89 90 91 92 93 >>
Time Temp. Humidity Pressure Rain* Wind** Luminosity Snow
1788013681 26.11° C 81% 1021.6 hPa 0 mm - 395 W/m² -
1788013375 25.56° C 84% 1021.6 hPa 0 mm - 346 W/m² -
1788013075 25.56° C 85% 1021.5 hPa 0 mm - 305 W/m² -
1788012774 25.56° C 85% 1021.6 hPa 0 mm - 107 W/m² -
1788012469 25.56° C 86% 1021.6 hPa 0 mm - 275 W/m² -
1788012169 25° C 87% 1021.3 hPa 0 mm - 260 W/m² -
1788011868 25° C 86% 1021.2 hPa 0 mm - 239 W/m² -
1788011567 23.89° C 91% 1021.4 hPa 0 mm - 257 W/m² -
1788011262 23.89° C 92% 1021.4 hPa 0 mm - 229 W/m² -
1788010961 23.33° C 94% 1021.5 hPa 0 mm - 223 W/m² -
1788010657 22.78° C 96% 1021.3 hPa 0 mm - 129 W/m² -
1788010355 21.67° C 98% 1021.4 hPa 0 mm - 104 W/m² -
1788010055 21.11° C 99% 1021.5 hPa 0 mm - 110 W/m² -
1788009750 20.56° C 99% 1021.5 hPa 0 mm - 100 W/m² -
1788009448 20° C 99% 1021.5 hPa 0 mm - 91 W/m² -
1788009146 18.89° C 99% 1021.7 hPa 0 mm - 73 W/m² -
1788008839 18.33° C 99% 1021.9 hPa 0 mm - 51 W/m² -
1788008538 17.78° C 99% 1021.6 hPa 0 mm - 48 W/m² -
1788008236 17.78° C 99% 1021.6 hPa 0 mm - 46 W/m² -
1788007934 17.22° C 99% 1021.5 hPa 0 mm - 42 W/m² -
1788007633 17.22° C 99% 1021.2 hPa 0 mm - 41 W/m² -
1788007328 16.67° C 99% 1021.1 hPa 0 mm - 39 W/m² -
1788007023 16.67° C 99% 1021 hPa 0 mm - 37 W/m² -
1788006722 16.11° C 99% 1021 hPa 0 mm - 35 W/m² -
1788006417 16.11° C 99% 1021.1 hPa 0 mm - 33 W/m² -

* Rain latest hour (hover to see other rain measurements)
** Current wind speed in m/s (hover to see current wind gust speed)